Flag for Switzerland Weather past 2 weeks in Liestal, Basel-Land, Switzerland

Now
34 °F

Passing clouds.


Feels Like: 34 °F
Forecast: 27 / 38 °F
Wind: 1 mph from North

Location: Bale-Mulhouse

Current Time: Jan 25, 2015 at 11:59:19 PM

Latest Report: Jan 25, 2015 at 11:30 PM


Visibility: N/A

Pressure: 30.39 "Hg

Humidity: 87%

Dew point: 30 °F

Location of LiestalLocation

Historic Weather in Liestal — Graph

°F

Liestal temperature yesterday

Maximum temperature yesterday: 37 °F (at 11:30 AM)
Minimum temperature yesterday: 32 °F (at 4:00 PM)
Average temperature yesterday: 34 °F

Past Weeks' High & Low Weather Summary

 TemperatureHumidityPressure
High61 °F (Jan 13, 3:00 PM)100% (Jan 11, 4:30 AM)30.48 "Hg (Jan 11, 4:30 AM)
Low27 °F (Jan 18, 4:30 AM)36% (Jan 13, 3:00 PM)29.71 "Hg (Jan 16, 2:30 PM)
Average38 °F85%30.03 "Hg
* Reported Jan 10 11:00 PM — Jan 25 11:00 PM, Liestal, Weather by CustomWeather, © 2014

Note: Actual official high and low records may vary slightly from our data, if they occured in-between our weather recording intervals... More about our weather records

Advertising

Liestal weather history for previous 24 hours

 ConditionsComfort  
Time TempWeatherWind HumidityBarometerVisibility
11:00 PM
Jan 25
34 °FPartly cloudy.No wind87%30.39 "HgN/A
10:30 PM34 °FPartly cloudy.2 mph87%30.42 "HgN/A
10:00 PM34 °FPassing clouds.5 mph87%30.42 "HgN/A
9:30 PM34 °FPassing clouds.5 mph93%30.42 "HgN/A
9:00 PM34 °FPassing clouds.5 mph93%30.42 "HgN/A
8:30 PM34 °FPassing clouds.2 mph93%30.42 "HgN/A
8:00 PM34 °FPassing clouds.3 mph93%30.42 "HgN/A
7:30 PM36 °FPassing clouds.5 mph87%30.42 "HgN/A
7:00 PM36 °FPassing clouds.3 mph87%30.42 "HgN/A
6:30 PM36 °FPassing clouds.2 mph81%30.42 "HgN/A
6:00 PM36 °FPassing clouds.2 mph81%30.42 "HgN/A
5:30 PM36 °FPassing clouds.3 mph81%30.42 "HgN/A
5:00 PM37 °FPartly sunny.3 mph75%30.39 "HgN/A
4:30 PM37 °FPartly sunny.3 mph81%30.39 "HgN/A
4:00 PM37 °FPartly sunny.5 mph75%30.39 "HgN/A
3:30 PM37 °FPartly sunny.6 mph75%30.39 "HgN/A
3:00 PM37 °FBroken clouds.6 mph81%30.39 "HgN/A
2:30 PM37 °FBroken clouds.3 mph75%30.39 "HgN/A
2:00 PM37 °FPartly sunny.5 mph81%30.39 "HgN/A
1:30 PM37 °FPartly sunny.5 mph81%30.42 "HgN/A
1:00 PM37 °FPartly sunny.6 mph75%30.42 "HgN/A
12:30 PM37 °FPartly sunny.6 mph81%30.45 "HgN/A
12:00 PM36 °FPartly sunny.7 mph87%30.45 "HgN/A
11:30 AM36 °FPartly sunny.8 mph87%30.45 "HgN/A
11:00 AM36 °FPartly sunny.7 mph87%30.45 "HgN/A
10:30 AM34 °FPartly sunny.6 mph93%30.45 "HgN/A
10:00 AM34 °FPartly sunny.5 mph93%30.42 "HgN/A
9:30 AM34 °FBroken clouds.5 mph93%30.42 "HgN/A
9:00 AM34 °FBroken clouds.7 mph93%30.42 "HgN/A
8:30 AM34 °FPartly sunny.6 mph87%30.42 "HgN/A
8:00 AM34 °FPassing clouds.5 mph87%30.39 "HgN/A
7:30 AM34 °FPassing clouds.3 mph87%30.39 "HgN/A
7:00 AM34 °FPartly cloudy.5 mph87%30.39 "HgN/A
6:30 AM34 °FPartly cloudy.5 mph87%30.36 "HgN/A
6:00 AM34 °FPassing clouds.3 mph87%30.36 "HgN/A
5:30 AM34 °FPassing clouds.3 mph87%30.36 "HgN/A
5:00 AM34 °FPassing clouds.6 mph87%30.36 "HgN/A
4:30 AM34 °FMostly cloudy.3 mph87%30.33 "HgN/A
4:00 AM34 °FMostly cloudy.5 mph87%30.33 "HgN/A
3:30 AM34 °FMostly cloudy.5 mph87%30.33 "HgN/A
3:00 AM34 °FMostly cloudy.6 mph87%30.33 "HgN/A
2:30 AM34 °FMostly cloudy.5 mph87%30.33 "HgN/A
2:00 AM34 °FOvercast.6 mph93%30.30 "HgN/A
1:30 AM32 °FMostly cloudy.6 mph100%30.30 "Hg6 mi
1:00 AM32 °FLight snow. Ice fog.7 mph100%30.30 "Hg3 mi
12:30 AM32 °FIce fog.8 mph100%30.27 "Hg3 mi
12:00 AM32 °FLight snow. Overcast.6 mph100%30.27 "Hg2 mi
11:30 PM
Jan 24
32 °FLight snow. Overcast.7 mph93%30.27 "Hg3 mi
11:00 PM32 °FLight snow. Mostly cloudy.8 mph93%30.27 "Hg3 mi
Weather by CustomWeather, © 2014

See weather overviewHow to use our weather pages